Location: Newark
(48.6461°N, 4.3644°W)
Time: 11:36:38
(UTC+00:00)

A-11 Canister half - Pass Details

Date: 04 February 2020
Orbit: 1517 x 1683 km, 47.2° (Epoch: 22 February)

Event Time Altitude Azimuth Distance (km) Brightness Sun altitude
Rises 18:31:35 0° 174° (S) 4,832 11.7 -12.1°
Reaches altitude 10° 18:37:00 10° 150° (SSE) 3,813 10.9 -13.0°
Maximum altitude 18:41:03 13° 124° (SE) 3,520 10.5 -13.7°
Enters shadow 18:43:22 12° 109° (ESE) 3,599 10.4 -14.1°
